QPF
0.05 0.02 0.01 0.00 0.00 0.00 0.00 0.00 0.00 0.00 0.00 0.00 0.00 0.00 0.00 0.00 0.00 0.00 0.02 0.00 0.01 0.01 0.00 0.00 0.00 0.00 0.01 0.02 0.02 0.03 0.02 0.03 0.05 0.04 0.04 0.02 0.03 0.02 0.02 0.00 0.01 0.03 0.08 0.11 0.15 0.11 0.05 0.01 0.01 0.01 0.01 0.00 0.00 0.00
0.00 0.00 0.00 0.00 0.00 0.00 0.00 0.00 0.00 0.00 0.00 0.00 0.00 0.00 0.00 0.00 0.00 0.00 0.01 0.00 0.00 0.00 0.00 0.00 0.00 0.00 0.00 0.00 0.01 0.01 0.01 0.04 0.08 0.10 0.10 0.10 0.10 0.08 0.06 0.04 0.01 0.04 0.04 0.03 0.04 0.04 0.02 0.01 0.01 0.00 0.00 0.00 0.00 0.00
0.00 0.00 0.00 0.00 0.00 0.00 0.00 0.00 0.00 0.00 0.00 0.00 0.00 0.00 0.00 0.00 0.00 0.00 0.00 0.00 0.00 0.00 0.00 0.00 0.00 0.00 0.00 0.00 0.00 0.00 0.00 0.00 0.01 0.06 0.05 0.07 0.04 0.02 0.04 0.04 0.04 0.02 0.01 0.04 0.03 0.00 0.00 0.00 0.00 0.00 0.00 0.00 0.00 0.00
0.00 0.00 0.00 0.00 0.00 0.00 0.00 0.00 0.00 0.00 0.00 0.00 0.00 0.00 0.00 0.00 0.00 0.00 0.00 0.00 0.00 0.00 0.00 0.00 0.00 0.00 0.00 0.00 0.00 0.00 0.00 0.00 0.00 0.02 0.03 0.03 0.03 0.02 0.02 0.02 0.01 0.02 0.04 0.08 0.06 0.01 0.01 0.00 0.00 0.00 0.00 0.00 0.00 0.00
0.01 0.00 0.00 0.00 0.00 0.00 0.00 0.00 0.00 0.00 0.00 0.00 0.00 0.00 0.00 0.00 0.00 0.00 0.00 0.01 0.00 0.01 0.02 0.01 0.00 0.00 0.00 0.00 0.00 0.00 0.00 0.00 0.00 0.00 0.01 0.01 0.00 0.01 0.00 0.00 0.00 0.00 0.01 0.03 0.01 0.01 0.02 0.00 0.00 0.00 0.00 0.00 0.00 0.00
0.03 0.02 0.01 0.01 0.00 0.00 0.01 0.00 0.00 0.00 0.00 0.00 0.00 0.00 0.00 0.00 0.00 0.00 0.00 0.00 0.00 0.01 0.02 0.01 0.00 0.00 0.00 0.00 0.00 0.00 0.00 0.00 0.00 0.01 0.01 0.00 0.00 0.02 0.02 0.00 0.00 0.00 0.01 0.01 0.00 0.00 0.00 0.00 0.01 0.00 0.00 0.00 0.00 0.00
0.03 0.08 0.07 0.02 0.01 0.01 0.02 0.01 0.01 0.01 0.00 0.00 0.00 0.00 0.00 0.00 0.00 0.00 0.01 0.04 0.01 0.03 0.04 0.02 0.00 0.00 0.00 0.00 0.01 0.01 0.00 0.00 0.01 0.04 0.02 0.01 0.01 0.04 0.02 0.01 0.00 0.00 0.00 0.00 0.00 0.00 0.00 0.00 0.00 0.00 0.00 0.00 0.00 0.00
0.02 0.06 0.11 0.09 0.02 0.02 0.03 0.01 0.02 0.08 0.04 0.00 0.00 0.00 0.00 0.00 0.00 0.00 0.00 0.00 0.01 0.04 0.03 0.02 0.00 0.00 0.00 0.00 0.02 0.05 0.04 0.02 0.01 0.02 0.01 0.01 0.02 0.04 0.03 0.00 0.00 0.00 0.00 0.00 0.00 0.00 0.00 0.00 0.00 0.00 0.00 0.00 0.00 0.00
0.01 0.01 0.03 0.04 0.04 0.04 0.03 0.03 0.01 0.02 0.03 0.01 0.00 0.00 0.00 0.00 0.00 0.00 0.00 0.00 0.02 0.03 0.03 0.02 0.01 0.01 0.03 0.05 0.06 0.07 0.08 0.05 0.02 0.01 0.01 0.03 0.03 0.06 0.01 0.00 0.00 0.00 0.00 0.00 0.00 0.00 0.00 0.00 0.00 0.00 0.00 0.00 0.00 0.00
0.02 0.01 0.01 0.01 0.01 0.01 0.01 0.02 0.01 0.00 0.01 0.01 0.00 0.01 0.01 0.00 0.00 0.00 0.01 0.02 0.02 0.02 0.02 0.00 0.00 0.00 0.02 0.04 0.07 0.16 0.20 0.08 0.09 0.05 0.04 0.06 0.02 0.00 0.00 0.00 0.00 0.00 0.00 0.00 0.00 0.00 0.00 0.00 0.00 0.00 0.00 0.01 0.00 0.00
0.01 0.00 0.00 0.00 0.00 0.00 0.00 0.00 0.00 0.00 0.01 0.02 0.02 0.01 0.04 0.01 0.01 0.03 0.03 0.02 0.02 0.02 0.00 0.00 0.00 0.00 0.00 0.00 0.01 0.01 0.04 0.12 0.14 0.09 0.07 0.02 0.00 0.00 0.00 0.00 0.00 0.00 0.00 0.00 0.00 0.00 0.00 0.00 0.00 0.00 0.01 0.01 0.00 0.00
0.00 0.00 0.00 0.00 0.00 0.01 0.01 0.01 0.00 0.00 0.01 0.02 0.04 0.07 0.07 0.02 0.04 0.03 0.02 0.02 0.03 0.01 0.00 0.01 0.00 0.00 0.00 0.00 0.01 0.02 0.07 0.10 0.08 0.09 0.06 0.01 0.00 0.02 0.01 0.01 0.00 0.00 0.00 0.00 0.00 0.00 0.00 0.00 0.00 0.00 0.00 0.00 0.00 0.00
0.00 0.00 0.00 0.00 0.00 0.01 0.00 0.00 0.00 0.02 0.03 0.04 0.03 0.01 0.01 0.01 0.02 0.04 0.01 0.00 0.01 0.01 0.02 0.02 0.06 0.07 0.03 0.03 0.03 0.04 0.14 0.08 0.03 0.03 0.00 0.00 0.02 0.00 0.00 0.00 0.00 0.00 0.00 0.00 0.00 0.01 0.02 0.02 0.02 0.02 0.02 0.01 0.00 0.00
0.00 0.00 0.00 0.00 0.00 0.00 0.00 0.00 0.00 0.02 0.06 0.05 0.02 0.01 0.02 0.02 0.01 0.01 0.02 0.04 0.04 0.03 0.04 0.05 0.07 0.06 0.05 0.06 0.06 0.06 0.03 0.02 0.01 0.00 0.00 0.02 0.02 0.00 0.00 0.00 0.00 0.00 0.00 0.01 0.03 0.05 0.05 0.03 0.01 0.00 0.01 0.01 0.01 0.01
0.00 0.00 0.00 0.00 0.01 0.00 0.00 0.00 0.00 0.02 0.06 0.04 0.04 0.01 0.01 0.01 0.02 0.03 0.04 0.05 0.05 0.08 0.10 0.09 0.04 0.05 0.08 0.07 0.03 0.03 0.03 0.01 0.00 0.00 0.04 0.06 0.01 0.00 0.00 0.00 0.00 0.00 0.00 0.01 0.01 0.02 0.00 0.00 0.00 0.00 0.01 0.00 0.00 0.00
0.00 0.00 0.00 0.00 0.00 0.00 0.00 0.00 0.01 0.05 0.05 0.02 0.01 0.01 0.01 0.03 0.07 0.13 0.14 0.07 0.03 0.04 0.04 0.09 0.13 0.06 0.07 0.04 0.04 0.01 0.00 0.00 0.03 0.07 0.09 0.02 0.00 0.00 0.00 0.00 0.00 0.00 0.01 0.01 0.00 0.00 0.00 0.00 0.00 0.00 0.00 0.00 0.00 0.00
0.00 0.00 0.00 0.00 0.02 0.02 0.01 0.03 0.02 0.03 0.01 0.00 0.00 0.01 0.00 0.01 0.03 0.06 0.06 0.03 0.04 0.03 0.02 0.05 0.06 0.03 0.04 0.04 0.03 0.03 0.03 0.04 0.05 0.04 0.01 0.00 0.00 0.00 0.00 0.00 0.00 0.00 0.02 0.02 0.01 0.00 0.00 0.00 0.00 0.00 0.00 0.00 0.00 0.00
0.00 0.00 0.00 0.00 0.01 0.02 0.03 0.03 0.01 0.01 0.01 0.00 0.00 0.01 0.02 0.02 0.02 0.01 0.01 0.02 0.04 0.03 0.03 0.06 0.07 0.05 0.05 0.02 0.03 0.06 0.03 0.00 0.01 0.00 0.00 0.00 0.00 0.00 0.00 0.00 0.00 0.01 0.02 0.03 0.03 0.03 0.03 0.03 0.02 0.01 0.00 0.00 0.00 0.00
0.02 0.03 0.04 0.01 0.02 0.02 0.04 0.05 0.01 0.01 0.01 0.01 0.01 0.01 0.01 0.00 0.00 0.00 0.00 0.00 0.02 0.02 0.01 0.02 0.04 0.01 0.03 0.03 0.01 0.00 0.00 0.00 0.00 0.00 0.00 0.00 0.00 0.00 0.00 0.01 0.02 0.03 0.03 0.05 0.05 0.05 0.04 0.03 0.02 0.01 0.01 0.00 0.00 0.00
0.06 0.13 0.16 0.12 0.03 0.03 0.04 0.05 0.03 0.02 0.00 0.01 0.01 0.01 0.01 0.00 0.00 0.00 0.00 0.00 0.01 0.03 0.03 0.03 0.03 0.04 0.01 0.01 0.01 0.00 0.00 0.00 0.01 0.01 0.01 0.02 0.01 0.00 0.02 0.03 0.04 0.04 0.05 0.05 0.06 0.05 0.03 0.02 0.01 0.01 0.01 0.01 0.00 0.00
0.01 0.01 0.04 0.16 0.13 0.07 0.14 0.16 0.08 0.05 0.04 0.02 0.02 0.02 0.01 0.00 0.00 0.00 0.00 0.01 0.04 0.07 0.08 0.07 0.04 0.02 0.01 0.01 0.00 0.00 0.00 0.01 0.01 0.03 0.04 0.05 0.01 0.03 0.05 0.06 0.06 0.06 0.06 0.05 0.05 0.05 0.03 0.03 0.02 0.01 0.01 0.00 0.00 0.00
0.01 0.00 0.01 0.02 0.05 0.07 0.04 0.02 0.02 0.02 0.03 0.01 0.02 0.03 0.03 0.03 0.03 0.02 0.01 0.05 0.09 0.04 0.01 0.02 0.02 0.01 0.00 0.00 0.00 0.01 0.01 0.01 0.01 0.01 0.02 0.02 0.03 0.05 0.06 0.07 0.08 0.08 0.06 0.05 0.04 0.03 0.03 0.03 0.02 0.00 0.00 0.00 0.00 0.00
0.00 0.00 0.04 0.03 0.03 0.01 0.00 0.00 0.00 0.01 0.03 0.02 0.03 0.04 0.04 0.08 0.04 0.00 0.02 0.03 0.02 0.00 0.01 0.01 0.00 0.00 0.01 0.00 0.01 0.00 0.01 0.03 0.04 0.04 0.04 0.04 0.05 0.06 0.06 0.07 0.06 0.05 0.04 0.04 0.03 0.03 0.02 0.01 0.00 0.00 0.00 0.00 0.01 0.01
0.00 0.00 0.00 0.00 0.00 0.00 0.00 0.00 0.00 0.01 0.02 0.01 0.01 0.01 0.03 0.04 0.01 0.01 0.04 0.02 0.00 0.00 0.00 0.00 0.00 0.00 0.01 0.01 0.01 0.00 0.01 0.03 0.04 0.04 0.05 0.06 0.05 0.06 0.05 0.05 0.05 0.04 0.03 0.03 0.02 0.01 0.01 0.00 0.00 0.00 0.00 0.00 0.00 0.00
0.00 0.00 0.00 0.00 0.00 0.00 0.00 0.00 0.00 0.00 0.00 0.00 0.00 0.00 0.01 0.01 0.01 0.01 0.03 0.01 0.01 0.01 0.00 0.00 0.00 0.00 0.02 0.01 0.02 0.01 0.00 0.02 0.04 0.04 0.04 0.05 0.05 0.05 0.04 0.03 0.03 0.03 0.04 0.04 0.03 0.02 0.01 0.00 0.00 0.00 0.00 0.00 0.00 0.00
0.00 0.00 0.00 0.00 0.00 0.00 0.00 0.00 0.00 0.00 0.00 0.00 0.00 0.00 0.00 0.00 0.00 0.02 0.01 0.01 0.01 0.01 0.01 0.01 0.00 0.00 0.01 0.00 0.00 0.00 0.00 0.01 0.03 0.03 0.03 0.03 0.04 0.05 0.03 0.02 0.02 0.03 0.03 0.04 0.03 0.02 0.01 0.00 0.00 0.00 0.00 0.00 0.00 0.00
0.00 0.00 0.00 0.00 0.00 0.00 0.00 0.00 0.00 0.00 0.00 0.00 0.00 0.00 0.00 0.00 0.02 0.01 0.01 0.00 0.00 0.00 0.00 0.00 0.00 0.00 0.01 0.01 0.00 0.01 0.00 0.00 0.01 0.02 0.02 0.02 0.02 0.03 0.03 0.04 0.02 0.03 0.03 0.03 0.03 0.03 0.02 0.02 0.01 0.00 0.00 0.00 0.00 0.00
0.00 0.00 0.00 0.00 0.00 0.00 0.00 0.00 0.00 0.00 0.00 0.00 0.00 0.00 0.00 0.01 0.02 0.00 0.00 0.00 0.00 0.00 0.00 0.00 0.01 0.00 0.00 0.00 0.00 0.01 0.01 0.01 0.01 0.01 0.01 0.01 0.01 0.02 0.02 0.03 0.02 0.02 0.02 0.02 0.02 0.02 0.02 0.01 0.01 0.00 0.00 0.00 0.00 0.00
0.00 0.00 0.00 0.00 0.00 0.00 0.00 0.00 0.00 0.00 0.00 0.00 0.00 0.00 0.00 0.00 0.00 0.00 0.00 0.00 0.00 0.00 0.01 0.01 0.03 0.01 0.02 0.02 0.02 0.00 0.01 0.01 0.01 0.02 0.04 0.04 0.01 0.02 0.02 0.02 0.02 0.02 0.01 0.01 0.01 0.01 0.00 0.00 0.00 0.00 0.00 0.00 0.00 0.00
0.00 0.00 0.00 0.00 0.00 0.00 0.00 0.00 0.01 0.01 0.00 0.00 0.00 0.00 0.00 0.01 0.00 0.00 0.00 0.00 0.00 0.01 0.01 0.01 0.01 0.01 0.01 0.02 0.04 0.02 0.00 0.00 0.01 0.02 0.03 0.04 0.02 0.01 0.01 0.01 0.01 0.01 0.01 0.01 0.00 0.01 0.00 0.00 0.00 0.00 0.00 0.00 0.00 0.00
0.00 0.00 0.00 0.00 0.00 0.00 0.00 0.00 0.00 0.00 0.00 0.00 0.00 0.00 0.00 0.01 0.00 0.00 0.00 0.00 0.00 0.00 0.00 0.01 0.01 0.00 0.00 0.01 0.01 0.02 0.03 0.00 0.00 0.01 0.01 0.02 0.01 0.01 0.01 0.01 0.01 0.01 0.01 0.00 0.00 0.00 0.00 0.00 0.00 0.00 0.00 0.00 0.00 0.00
0.00 0.00 0.00 0.00 0.00 0.00 0.00 0.00 0.00 0.00 0.00 0.00 0.01 0.00 0.00 0.00 0.01 0.01 0.00 0.00 0.00 0.00 0.00 0.00 0.01 0.01 0.00 0.01 0.01 0.01 0.01 0.01 0.00 0.01 0.01 0.01 0.01 0.01 0.01 0.01 0.01 0.01 0.01 0.01 0.01 0.00 0.00 0.00 0.00 0.00 0.00 0.00 0.00 0.00
0.00 0.00 0.00 0.00 0.00 0.00 0.00 0.00 0.00 0.00 0.00 0.00 0.00 0.00 0.00 0.00 0.00 0.01 0.00 0.00 0.00 0.00 0.00 0.01 0.01 0.01 0.00 0.00 0.00 0.00 0.00 0.00 0.00 0.00 0.00 0.00 0.00 0.01 0.01 0.01 0.01 0.01 0.01 0.01 0.00 0.00 0.00 0.00 0.00 0.00 0.00 0.00 0.00 0.00
MSLP
1005.42 1006.71 1007.89 1009.04 1010.07 1010.91 1011.74 1012.46 1013.34 1014.02 1014.82 1015.23 1015.55 1015.93 1016.46 1016.78 1016.93 1017.01 1016.59 1016.73 1016.83 1016.91 1015.97 1016.15 1015.62 1015.69 1015.30 1015.64 1015.74 1015.34 1015.27 1014.32 1014.35 1015.21 1014.82 1014.27 1013.17 1011.71 1010.45 1009.37 1008.58 1008.51 1008.72 1008.82 1009.04 1008.00 1008.02 1007.42 1007.06 1006.80 1005.60 1005.42 1005.54 1005.74
1006.37 1007.29 1008.42 1009.52 1010.47 1011.21 1011.95 1012.79 1013.63 1014.24 1014.75 1015.23 1015.73 1016.09 1016.49 1016.72 1016.98 1017.16 1016.35 1016.81 1016.90 1016.54 1015.91 1016.06 1015.74 1015.76 1015.80 1015.79 1015.97 1015.41 1015.26 1014.95 1015.52 1015.51 1015.12 1014.90 1013.93 1012.95 1011.88 1009.86 1008.60 1009.10 1008.67 1009.10 1008.85 1007.88 1007.57 1007.10 1007.67 1006.68 1005.43 1005.01 1005.03 1005.16
1007.35 1008.21 1009.06 1009.94 1010.75 1011.59 1012.25 1013.03 1013.84 1014.38 1014.95 1015.42 1015.98 1016.46 1017.00 1017.33 1017.28 1017.09 1016.63 1016.78 1016.92 1016.50 1016.30 1015.81 1015.26 1015.14 1015.23 1015.47 1015.80 1015.82 1015.05 1015.06 1015.12 1015.58 1015.92 1015.49 1014.61 1013.41 1012.12 1010.88 1010.22 1009.40 1008.76 1009.11 1008.74 1007.48 1006.76 1006.16 1005.74 1005.22 1004.70 1004.80 1004.90 1004.92
1008.03 1008.82 1009.52 1010.33 1011.17 1011.81 1012.55 1013.42 1014.21 1014.68 1015.30 1015.92 1016.42 1016.65 1016.98 1017.11 1017.23 1017.35 1016.95 1016.91 1016.99 1016.69 1015.98 1015.00 1014.16 1014.14 1014.42 1014.77 1014.89 1015.21 1015.13 1015.03 1015.31 1015.34 1015.52 1015.17 1014.36 1013.21 1012.54 1011.81 1010.80 1010.02 1009.14 1008.62 1008.57 1008.23 1006.90 1005.89 1005.30 1005.04 1004.98 1004.73 1004.90 1005.13
1008.69 1009.51 1010.11 1010.78 1011.49 1012.17 1012.84 1013.64 1014.37 1015.00 1015.50 1016.03 1016.43 1016.61 1017.13 1017.20 1017.54 1017.71 1017.10 1016.93 1017.09 1017.16 1016.19 1015.26 1014.58 1014.07 1013.79 1013.86 1014.11 1014.26 1014.39 1014.64 1014.80 1014.75 1014.55 1014.25 1013.78 1013.25 1012.14 1011.40 1009.38 1009.29 1008.14 1007.90 1007.06 1006.68 1006.53 1005.78 1005.50 1005.73 1005.49 1005.21 1004.79 1004.85
1009.38 1010.06 1010.63 1011.19 1011.87 1012.54 1013.25 1013.95 1014.57 1015.23 1015.81 1016.06 1016.37 1016.78 1017.04 1017.46 1017.84 1017.49 1017.06 1016.47 1016.88 1016.91 1016.88 1015.42 1013.36 1012.66 1012.44 1012.76 1012.99 1013.13 1013.63 1013.68 1013.89 1013.81 1013.60 1013.08 1013.01 1013.12 1011.88 1009.88 1008.35 1007.81 1007.22 1007.39 1007.12 1006.12 1005.45 1005.11 1004.74 1004.64 1004.89 1004.39 1004.42 1004.58
1010.09 1010.55 1010.99 1011.58 1012.29 1012.98 1013.67 1014.22 1014.79 1015.36 1015.90 1016.33 1016.64 1017.03 1017.32 1017.55 1017.59 1017.44 1017.38 1017.39 1017.22 1017.13 1017.05 1015.42 1013.21 1011.53 1011.76 1011.85 1011.88 1012.12 1012.35 1012.48 1012.88 1013.09 1012.65 1012.56 1012.36 1012.45 1010.99 1008.96 1008.15 1007.60 1006.82 1006.22 1005.82 1005.23 1004.68 1004.64 1004.13 1004.05 1003.92 1003.88 1004.03 1004.31
1010.65 1011.22 1011.70 1012.10 1012.58 1013.16 1013.85 1014.52 1015.06 1015.57 1016.06 1016.57 1017.05 1017.16 1017.46 1017.73 1017.96 1017.44 1016.99 1017.31 1017.13 1017.16 1016.61 1015.40 1013.37 1012.13 1011.47 1011.13 1011.07 1011.23 1011.59 1011.76 1011.75 1011.82 1011.90 1011.49 1011.30 1011.20 1009.54 1007.37 1007.06 1006.32 1005.65 1005.00 1004.61 1004.37 1003.95 1003.78 1003.78 1003.74 1003.75 1003.68 1003.81 1004.06
1010.97 1011.61 1012.26 1012.80 1013.15 1013.65 1014.24 1014.81 1015.44 1016.04 1016.51 1016.88 1017.20 1017.46 1017.51 1017.64 1017.17 1016.64 1016.99 1017.29 1017.17 1017.68 1016.57 1014.98 1013.57 1012.11 1011.43 1011.40 1011.45 1011.42 1011.49 1011.56 1011.41 1011.41 1011.39 1011.47 1010.11 1008.73 1006.78 1006.26 1005.65 1005.18 1004.55 1004.17 1004.13 1004.17 1004.00 1003.92 1003.87 1003.67 1003.70 1003.75 1004.03 1004.46
1011.37 1011.81 1012.36 1012.97 1013.48 1013.98 1014.49 1015.10 1015.73 1016.29 1016.83 1017.23 1017.45 1017.39 1017.36 1016.59 1016.91 1017.23 1017.32 1017.07 1017.05 1016.66 1016.25 1014.53 1013.56 1012.14 1012.05 1011.83 1011.98 1012.15 1012.06 1011.64 1010.88 1010.09 1009.93 1009.42 1007.92 1006.80 1005.95 1005.26 1004.86 1004.62 1004.35 1004.41 1004.87 1004.91 1004.91 1004.86 1004.54 1004.12 1003.99 1004.07 1004.75 1005.57
1012.08 1012.53 1012.99 1013.49 1013.95 1014.32 1014.64 1015.14 1015.72 1016.21 1016.79 1016.96 1016.96 1016.69 1016.70 1016.85 1016.75 1016.75 1016.78 1016.65 1015.80 1015.29 1014.35 1012.88 1012.20 1011.51 1011.50 1011.52 1011.83 1012.27 1012.01 1011.15 1009.76 1008.62 1008.37 1007.30 1005.78 1004.81 1004.38 1003.92 1004.72 1004.96 1005.34 1005.70 1006.19 1006.31 1006.59 1006.40 1006.23 1006.11 1005.72 1005.99 1006.14 1006.36
1012.67 1013.13 1013.59 1014.05 1014.45 1014.84 1015.22 1015.61 1015.94 1016.01 1016.30 1016.55 1016.32 1016.21 1016.71 1016.78 1016.57 1016.53 1015.69 1014.96 1014.27 1012.95 1011.63 1011.06 1010.86 1010.56 1010.62 1010.86 1011.37 1011.79 1011.74 1010.93 1009.21 1008.29 1007.64 1006.22 1004.98 1004.74 1004.89 1005.05 1005.90 1006.72 1007.25 1007.51 1007.98 1008.31 1008.45 1008.39 1008.31 1008.08 1007.82 1007.84 1008.19 1008.42
1013.17 1013.62 1014.03 1014.42 1014.83 1015.22 1015.57 1015.87 1016.11 1016.19 1016.44 1016.13 1016.15 1016.59 1016.66 1016.23 1015.88 1015.07 1014.05 1013.30 1012.58 1011.83 1011.46 1011.05 1011.12 1010.96 1010.31 1010.47 1011.16 1011.33 1010.81 1009.19 1008.39 1007.83 1006.81 1005.57 1005.28 1005.78 1006.08 1006.27 1007.05 1008.03 1008.62 1008.97 1009.45 1009.66 1009.74 1009.74 1009.79 1009.72 1009.62 1009.56 1009.40 1009.54
1013.66 1014.03 1014.36 1014.67 1014.99 1015.35 1015.76 1016.12 1016.42 1016.71 1016.79 1016.25 1016.20 1016.10 1015.70 1014.73 1014.20 1013.32 1013.18 1012.92 1012.65 1012.40 1012.21 1011.90 1011.70 1011.41 1010.52 1010.55 1010.48 1010.24 1009.38 1008.77 1008.05 1007.24 1006.11 1005.77 1006.34 1006.85 1007.49 1007.85 1008.23 1008.89 1009.53 1009.89 1010.08 1010.30 1010.51 1010.50 1010.52 1010.56 1010.45 1010.36 1010.28 1010.35
1013.85 1014.18 1014.52 1014.84 1015.11 1015.49 1015.82 1016.15 1016.57 1016.61 1016.53 1016.06 1015.49 1014.71 1013.91 1013.41 1013.38 1013.55 1013.57 1013.22 1012.66 1012.62 1012.18 1011.89 1011.72 1011.70 1010.53 1010.25 1009.94 1009.56 1009.15 1008.26 1007.45 1006.43 1006.40 1006.80 1007.41 1007.88 1008.20 1008.55 1009.01 1009.65 1010.19 1010.42 1010.59 1010.82 1010.96 1011.04 1011.13 1011.21 1011.23 1011.16 1011.19 1011.28
1014.25 1014.65 1014.55 1014.94 1015.33 1015.65 1016.03 1016.54 1016.81 1016.84 1016.50 1015.53 1014.73 1014.03 1013.42 1013.27 1013.05 1013.45 1013.22 1012.39 1011.78 1011.47 1011.32 1011.23 1010.35 1010.32 1010.11 1009.95 1009.53 1008.93 1008.39 1007.52 1007.12 1007.55 1007.72 1007.59 1007.93 1008.45 1008.87 1009.27 1009.71 1010.13 1010.48 1010.76 1010.91 1011.12 1011.33 1011.39 1011.58 1011.80 1011.91 1011.91 1011.97 1012.07
1014.30 1013.77 1014.45 1015.01 1015.44 1015.83 1016.21 1016.47 1016.80 1016.53 1015.69 1014.62 1013.55 1013.24 1013.25 1013.17 1012.91 1012.82 1012.53 1012.04 1011.39 1011.54 1011.20 1010.51 1010.06 1009.25 1008.89 1008.82 1008.56 1008.33 1008.43 1008.80 1008.80 1008.67 1008.69 1008.75 1008.87 1009.08 1009.41 1009.74 1010.16 1010.56 1010.80 1011.03 1011.18 1011.30 1011.55 1011.74 1011.87 1012.03 1012.19 1012.39 1012.43 1012.65
1013.84 1013.85 1014.38 1014.99 1015.48 1016.03 1016.46 1016.54 1016.32 1015.77 1014.55 1013.53 1012.95 1012.43 1012.45 1012.57 1012.56 1012.37 1012.05 1011.83 1011.86 1011.68 1011.25 1010.70 1010.34 1009.69 1009.22 1008.84 1008.86 1009.64 1009.83 1009.95 1009.87 1009.66 1009.36 1009.25 1009.33 1009.48 1009.63 1009.95 1010.35 1010.70 1010.93 1011.21 1011.42 1011.57 1011.79 1011.96 1012.11 1012.29 1012.41 1012.62 1012.82 1013.06
1014.04 1014.43 1014.80 1015.13 1015.24 1015.97 1016.25 1016.28 1015.69 1014.48 1013.05 1012.42 1011.90 1011.84 1011.91 1011.93 1011.80 1011.80 1011.85 1011.77 1011.87 1011.97 1011.83 1011.23 1010.55 1009.73 1009.71 1010.41 1010.84 1010.99 1011.03 1010.90 1010.51 1010.02 1009.59 1009.21 1009.18 1009.43 1009.77 1010.01 1010.37 1010.70 1011.07 1011.40 1011.56 1011.78 1012.03 1012.21 1012.40 1012.51 1012.61 1012.77 1013.15 1013.43
1014.59 1014.84 1015.05 1015.42 1015.62 1015.52 1015.56 1014.99 1014.99 1013.64 1011.92 1011.24 1011.02 1011.14 1011.28 1011.22 1011.23 1011.44 1011.58 1011.79 1011.99 1011.99 1011.79 1011.34 1010.70 1010.95 1011.51 1011.80 1011.99 1011.96 1011.71 1011.31 1010.70 1009.99 1009.39 1009.01 1009.34 1009.67 1009.92 1010.17 1010.42 1010.82 1011.23 1011.60 1011.90 1012.19 1012.46 1012.74 1013.01 1013.16 1013.26 1013.38 1013.68 1014.10
1014.32 1014.56 1014.31 1014.98 1015.76 1015.54 1015.08 1013.61 1013.36 1012.71 1011.76 1011.17 1010.41 1010.42 1010.45 1010.47 1010.97 1011.22 1011.38 1011.47 1011.92 1011.74 1011.35 1011.64 1011.84 1012.13 1012.46 1012.47 1012.39 1012.30 1011.94 1011.78 1011.29 1010.85 1010.35 1010.05 1010.00 1010.08 1010.21 1010.48 1010.86 1011.20 1011.50 1011.74 1012.00 1012.51 1012.85 1013.21 1013.54 1013.77 1013.98 1014.20 1014.48 1014.79
1013.21 1013.72 1014.57 1015.28 1014.95 1014.94 1013.80 1012.00 1011.37 1010.69 1010.66 1009.98 1009.76 1009.99 1009.87 1010.03 1010.26 1010.54 1010.73 1011.11 1011.54 1012.39 1012.71 1012.77 1012.81 1012.76 1012.55 1012.60 1012.72 1012.68 1012.57 1012.09 1011.50 1011.02 1010.86 1010.69 1010.45 1010.47 1010.64 1010.90 1011.19 1011.43 1011.78 1012.11 1012.43 1012.89 1013.46 1013.84 1014.05 1014.30 1014.50 1014.90 1015.28 1015.52
1013.56 1013.42 1013.23 1013.75 1013.74 1013.22 1012.38 1011.34 1010.99 1010.44 1010.23 1009.79 1009.57 1009.45 1009.32 1009.35 1010.10 1010.57 1010.76 1011.46 1012.66 1013.58 1013.69 1013.63 1013.33 1012.94 1012.75 1012.82 1012.91 1013.06 1012.96 1012.44 1011.87 1011.65 1011.50 1011.38 1011.32 1011.33 1011.42 1011.59 1011.79 1012.08 1012.43 1012.85 1013.12 1013.52 1014.01 1014.42 1014.55 1014.77 1015.05 1015.27 1015.53 1015.95
1013.10 1013.38 1013.53 1013.28 1013.22 1012.93 1012.60 1011.92 1011.04 1010.53 1010.32 1010.15 1009.72 1009.60 1009.51 1009.88 1010.27 1010.42 1010.82 1012.30 1013.51 1013.92 1014.23 1014.22 1013.81 1013.42 1013.07 1013.11 1013.17 1013.53 1013.71 1013.32 1012.83 1012.75 1012.58 1012.27 1012.34 1012.53 1012.59 1012.71 1012.81 1012.99 1013.24 1013.48 1013.79 1014.08 1014.45 1014.77 1015.05 1015.31 1015.61 1015.92 1016.27 1016.68
1013.79 1014.60 1014.41 1013.71 1013.59 1013.27 1012.74 1012.17 1011.77 1011.26 1010.86 1010.69 1010.57 1010.38 1010.18 1010.34 1010.44 1010.64 1011.56 1013.26 1014.02 1014.66 1015.15 1015.13 1014.72 1014.31 1013.95 1013.87 1014.10 1014.19 1014.41 1014.34 1013.98 1013.58 1013.65 1013.38 1013.40 1013.49 1013.65 1013.81 1014.02 1014.17 1014.09 1014.07 1014.37 1014.71 1015.06 1015.40 1015.92 1016.23 1016.48 1016.72 1017.14 1017.58
1013.83 1014.38 1014.36 1013.80 1013.63 1013.32 1012.83 1012.60 1012.28 1011.98 1011.77 1011.72 1011.26 1011.24 1011.33 1011.26 1011.44 1011.86 1013.42 1014.63 1015.07 1015.60 1015.95 1015.91 1015.70 1015.29 1014.98 1014.99 1015.08 1015.18 1015.25 1015.08 1014.68 1014.34 1014.76 1014.66 1014.43 1014.10 1013.92 1014.26 1014.65 1015.07 1015.01 1014.76 1014.91 1015.29 1015.75 1016.20 1016.67 1017.11 1017.51 1017.82 1018.04 1018.34
1013.98 1014.13 1014.04 1014.19 1014.03 1013.75 1013.50 1013.18 1013.01 1012.84 1012.60 1012.30 1012.05 1012.26 1012.18 1012.14 1012.24 1013.93 1015.04 1016.04 1016.28 1016.54 1016.62 1016.43 1016.27 1016.05 1015.87 1015.78 1015.84 1015.88 1015.79 1015.72 1015.70 1015.70 1015.71 1015.63 1015.54 1015.44 1015.25 1014.91 1015.45 1015.96 1015.96 1015.84 1015.78 1015.89 1016.33 1016.77 1017.24 1017.72 1018.19 1018.63 1018.91 1019.11
1014.26 1014.43 1014.61 1014.70 1014.48 1014.27 1014.17 1013.87 1013.61 1013.33 1013.15 1013.14 1013.19 1012.98 1012.85 1013.25 1014.36 1015.55 1016.16 1016.65 1016.93 1017.02 1016.85 1016.56 1016.36 1016.35 1016.36 1016.42 1016.46 1016.35 1016.10 1015.92 1015.89 1015.90 1016.02 1016.08 1016.17 1016.32 1016.43 1016.57 1016.74 1016.82 1016.87 1016.74 1016.64 1016.65 1016.91 1017.31 1017.75 1018.28 1018.78 1019.30 1019.78 1020.13
1014.60 1014.79 1014.90 1015.09 1015.07 1014.61 1014.31 1014.00 1013.86 1013.77 1014.22 1014.21 1014.03 1013.91 1013.98 1014.95 1015.97 1016.40 1016.77 1017.22 1017.26 1017.09 1016.82 1016.78 1016.81 1016.75 1016.46 1016.37 1016.61 1016.80 1016.87 1016.70 1016.37 1016.08 1015.88 1015.60 1016.04 1016.79 1016.91 1017.03 1017.25 1017.52 1017.72 1017.86 1017.86 1017.84 1017.97 1018.25 1018.64 1019.02 1019.42 1019.87 1020.33 1020.68
1014.98 1015.23 1015.03 1015.08 1015.18 1014.59 1014.40 1014.67 1014.85 1015.28 1015.26 1015.19 1015.25 1015.05 1014.93 1015.15 1016.41 1017.09 1017.23 1017.34 1017.42 1017.47 1017.50 1017.34 1017.26 1017.28 1017.23 1017.06 1017.00 1017.16 1017.55 1017.71 1017.65 1017.37 1016.83 1016.81 1016.92 1017.19 1017.30 1017.39 1017.55 1017.86 1018.22 1018.58 1018.80 1019.08 1019.19 1019.28 1019.57 1019.94 1020.20 1020.60 1021.01 1021.47
1015.45 1015.35 1015.18 1014.98 1014.70 1014.71 1015.22 1015.61 1015.76 1015.83 1015.82 1015.60 1015.52 1015.77 1015.64 1016.03 1016.43 1017.08 1017.46 1017.78 1017.85 1017.70 1017.63 1017.61 1017.66 1017.99 1018.16 1018.22 1018.25 1018.23 1018.10 1018.44 1018.56 1018.37 1018.12 1017.86 1017.86 1017.97 1018.08 1018.13 1018.11 1018.22 1018.47 1018.68 1018.85 1019.07 1019.36 1019.54 1019.78 1020.15 1020.65 1021.18 1021.70 1022.19
1015.46 1015.37 1015.45 1015.29 1014.89 1015.46 1015.68 1015.54 1015.32 1015.33 1015.17 1015.34 1015.36 1015.76 1015.89 1016.12 1016.15 1016.98 1017.86 1018.01 1017.75 1017.77 1018.27 1018.28 1018.40 1018.68 1019.09 1019.06 1019.13 1019.17 1019.45 1019.30 1019.41 1019.43 1019.28 1018.80 1018.80 1018.81 1018.80 1018.82 1018.78 1018.76 1018.86 1019.01 1019.16 1019.31 1019.58 1019.88 1020.35 1020.90 1021.46 1022.04 1022.61 1023.17
1015.57 1015.78 1015.81 1015.69 1015.45 1015.36 1015.67 1015.98 1015.45 1015.23 1015.20 1015.14 1015.17 1015.67 1016.02 1016.31 1016.43 1017.31 1018.29 1018.52 1018.62 1018.56 1018.62 1018.81 1019.07 1019.37 1019.62 1019.70 1019.69 1019.48 1019.59 1019.96 1020.37 1020.48 1020.37 1020.15 1019.94 1019.67 1019.39 1019.36 1019.35 1019.37 1019.40 1019.45 1019.53 1019.71 1020.07 1020.53 1021.04 1021.69 1022.38 1022.96 1023.42 1023.87
Thickness
5391 5386 5381 5375 5372 5372 5371 5371 5370 5370 5368 5369 5370 5371 5370 5372 5373 5374 5380 5378 5376 5368 5382 5380 5387 5386 5393 5390 5381 5397 5397 5412 5413 5397 5398 5416 5425 5448 5459 5469 5474 5474 5470 5468 5452 5454 5461 5481 5481 5472 5485 5489 5485 5480
5376 5372 5367 5363 5362 5363 5362 5361 5360 5360 5360 5359 5360 5361 5361 5361 5359 5358 5368 5360 5359 5362 5368 5368 5371 5372 5375 5380 5376 5385 5388 5395 5385 5386 5397 5395 5405 5413 5420 5442 5473 5446 5467 5457 5464 5464 5472 5469 5455 5471 5483 5484 5481 5478
5360 5358 5356 5354 5354 5352 5352 5352 5350 5350 5349 5349 5346 5345 5343 5340 5342 5344 5350 5348 5345 5350 5351 5356 5361 5366 5368 5368 5366 5368 5380 5383 5386 5381 5375 5379 5384 5408 5416 5430 5433 5448 5460 5446 5450 5470 5474 5476 5479 5482 5483 5478 5477 5476
5348 5347 5347 5346 5344 5344 5344 5341 5338 5338 5337 5333 5332 5332 5331 5331 5331 5331 5335 5336 5335 5340 5342 5355 5363 5365 5364 5363 5364 5365 5367 5368 5371 5376 5369 5374 5384 5405 5403 5410 5421 5436 5446 5444 5437 5445 5457 5470 5476 5475 5472 5474 5469 5467
5339 5336 5337 5336 5335 5334 5333 5331 5329 5327 5326 5325 5323 5324 5322 5323 5320 5319 5325 5328 5327 5328 5333 5343 5353 5358 5362 5363 5362 5364 5365 5364 5364 5364 5369 5375 5386 5391 5404 5410 5428 5436 5446 5440 5447 5457 5451 5461 5465 5460 5458 5459 5464 5462
5328 5326 5325 5326 5326 5325 5323 5323 5322 5319 5318 5319 5319 5318 5317 5315 5313 5316 5320 5326 5323 5323 5320 5332 5360 5366 5368 5366 5366 5366 5364 5366 5366 5367 5372 5382 5386 5380 5384 5408 5437 5444 5447 5438 5435 5453 5458 5459 5463 5462 5457 5462 5461 5458
5317 5317 5318 5317 5317 5316 5315 5315 5314 5313 5312 5312 5312 5311 5311 5310 5310 5316 5316 5315 5315 5316 5313 5327 5352 5374 5370 5369 5370 5370 5371 5372 5369 5366 5372 5376 5381 5375 5384 5400 5425 5432 5440 5444 5448 5453 5455 5456 5458 5461 5461 5460 5457 5454
5308 5308 5308 5310 5310 5309 5307 5306 5306 5306 5306 5305 5304 5306 5305 5304 5304 5310 5313 5310 5312 5312 5316 5323 5345 5359 5368 5370 5370 5375 5371 5373 5374 5375 5376 5380 5383 5379 5381 5418 5424 5434 5442 5449 5452 5455 5457 5458 5457 5456 5455 5454 5451 5448
5299 5299 5300 5300 5301 5300 5299 5299 5298 5298 5297 5297 5298 5298 5298 5300 5306 5311 5307 5305 5305 5302 5307 5326 5335 5346 5364 5363 5365 5368 5368 5362 5373 5364 5367 5369 5381 5386 5414 5423 5431 5437 5444 5448 5449 5450 5451 5451 5449 5451 5449 5447 5442 5439
5289 5292 5293 5292 5292 5292 5292 5290 5289 5289 5289 5288 5290 5295 5289 5304 5302 5299 5300 5300 5299 5302 5304 5319 5334 5344 5351 5352 5351 5351 5342 5356 5363 5376 5381 5373 5392 5411 5421 5430 5434 5436 5440 5439 5433 5434 5435 5436 5438 5441 5440 5438 5430 5422
5277 5279 5280 5281 5281 5283 5285 5286 5286 5286 5284 5287 5289 5293 5297 5295 5296 5296 5292 5292 5303 5301 5313 5330 5339 5345 5351 5346 5347 5350 5351 5363 5377 5392 5386 5401 5417 5428 5434 5437 5428 5427 5424 5420 5415 5414 5411 5412 5412 5411 5415 5409 5408 5407
5267 5267 5268 5269 5270 5271 5273 5275 5278 5283 5286 5287 5292 5295 5292 5291 5293 5289 5300 5310 5312 5323 5340 5339 5345 5354 5354 5357 5352 5349 5346 5360 5375 5388 5391 5405 5425 5426 5426 5420 5408 5396 5390 5389 5384 5381 5377 5379 5378 5381 5385 5385 5378 5375
5261 5260 5259 5258 5258 5258 5261 5265 5270 5276 5279 5284 5286 5279 5284 5292 5290 5300 5311 5326 5329 5338 5340 5341 5337 5345 5357 5359 5349 5350 5351 5370 5391 5384 5397 5418 5417 5406 5401 5401 5391 5376 5368 5364 5360 5358 5357 5356 5354 5355 5356 5356 5359 5356
5264 5260 5258 5255 5252 5251 5252 5257 5266 5272 5274 5281 5282 5285 5293 5305 5312 5327 5329 5330 5327 5328 5331 5332 5330 5337 5353 5351 5355 5354 5373 5381 5378 5384 5404 5412 5394 5386 5378 5378 5375 5364 5355 5353 5351 5349 5346 5346 5346 5346 5347 5348 5349 5348
5276 5272 5268 5264 5262 5260 5260 5263 5267 5274 5279 5286 5295 5301 5314 5323 5322 5317 5316 5318 5323 5321 5324 5329 5332 5332 5350 5352 5360 5367 5366 5374 5385 5400 5400 5387 5380 5376 5372 5369 5365 5356 5347 5346 5345 5342 5341 5340 5339 5338 5337 5338 5338 5337
5286 5283 5284 5281 5279 5277 5276 5275 5276 5279 5284 5296 5305 5309 5321 5320 5324 5316 5317 5325 5336 5336 5337 5338 5350 5348 5350 5354 5357 5368 5379 5390 5396 5380 5374 5379 5373 5367 5364 5359 5352 5347 5345 5340 5338 5337 5334 5334 5331 5329 5328 5327 5327 5325
5295 5301 5295 5291 5289 5287 5285 5284 5283 5287 5297 5306 5317 5320 5318 5319 5321 5321 5323 5330 5341 5336 5339 5353 5351 5365 5375 5370 5374 5381 5377 5364 5359 5359 5359 5358 5357 5356 5349 5345 5340 5338 5337 5334 5331 5330 5327 5325 5324 5323 5321 5318 5318 5315
5303 5303 5300 5296 5293 5290 5288 5289 5290 5294 5305 5317 5322 5327 5328 5325 5322 5327 5331 5334 5332 5331 5339 5345 5348 5352 5356 5367 5375 5348 5344 5341 5339 5341 5346 5347 5346 5341 5339 5337 5333 5330 5329 5325 5322 5321 5319 5317 5316 5314 5313 5311 5309 5306
5304 5300 5298 5296 5296 5290 5288 5289 5296 5306 5319 5325 5331 5331 5329 5326 5329 5329 5329 5328 5325 5321 5322 5330 5340 5353 5354 5334 5328 5326 5324 5323 5325 5331 5334 5336 5335 5331 5328 5326 5322 5320 5318 5316 5315 5312 5309 5307 5306 5305 5304 5303 5300 5297
5300 5298 5296 5294 5291 5293 5291 5301 5296 5309 5326 5332 5333 5327 5324 5325 5326 5320 5318 5315 5312 5314 5315 5321 5333 5322 5315 5309 5305 5305 5307 5311 5317 5323 5329 5329 5324 5319 5316 5315 5313 5309 5307 5305 5302 5300 5297 5295 5292 5291 5291 5290 5288 5284
5302 5300 5301 5296 5287 5289 5291 5302 5300 5306 5314 5318 5328 5327 5323 5324 5314 5310 5308 5309 5303 5310 5316 5304 5301 5296 5292 5291 5293 5292 5295 5295 5300 5303 5307 5310 5309 5307 5305 5301 5297 5295 5295 5295 5294 5290 5287 5284 5281 5279 5277 5275 5273 5271
5312 5306 5299 5291 5293 5290 5299 5318 5321 5326 5322 5329 5330 5323 5322 5315 5313 5310 5309 5305 5302 5289 5285 5284 5281 5280 5283 5281 5277 5278 5277 5281 5286 5291 5290 5292 5297 5296 5293 5290 5288 5287 5285 5283 5282 5278 5273 5269 5268 5266 5266 5262 5259 5256
5311 5310 5312 5305 5302 5307 5311 5318 5318 5323 5316 5321 5324 5321 5322 5321 5306 5304 5302 5295 5278 5268 5266 5266 5268 5271 5271 5269 5267 5264 5262 5267 5272 5275 5276 5277 5278 5279 5278 5276 5274 5272 5269 5266 5265 5263 5258 5256 5256 5255 5253 5251 5248 5244
5314 5310 5303 5308 5309 5307 5306 5305 5318 5320 5319 5316 5319 5314 5316 5308 5305 5302 5299 5275 5263 5258 5253 5250 5253 5255 5257 5253 5253 5247 5243 5247 5253 5252 5253 5258 5257 5256 5256 5256 5256 5255 5253 5252 5250 5249 5246 5244 5243 5241 5239 5235 5232 5227
5312 5298 5297 5301 5301 5301 5302 5303 5303 5308 5306 5309 5304 5303 5304 5303 5299 5301 5289 5263 5252 5243 5234 5232 5233 5235 5234 5234 5228 5227 5223 5224 5228 5234 5232 5235 5236 5236 5235 5235 5234 5234 5236 5238 5236 5234 5231 5229 5224 5222 5220 5218 5213 5208
5307 5299 5298 5300 5298 5299 5302 5295 5296 5296 5296 5289 5295 5294 5291 5289 5286 5282 5258 5242 5236 5227 5219 5214 5211 5212 5212 5209 5205 5202 5200 5202 5207 5214 5209 5211 5213 5219 5225 5222 5219 5214 5215 5219 5220 5217 5214 5210 5207 5203 5199 5196 5194 5191
5304 5301 5303 5299 5297 5297 5293 5294 5294 5289 5284 5283 5286 5277 5278 5276 5279 5249 5236 5223 5218 5211 5205 5201 5196 5192 5189 5187 5184 5182 5182 5182 5182 5183 5185 5187 5190 5192 5196 5205 5199 5194 5195 5197 5199 5200 5196 5194 5190 5186 5182 5178 5175 5174
5305 5300 5288 5289 5287 5290 5280 5281 5281 5279 5280 5279 5273 5269 5271 5264 5248 5229 5220 5212 5205 5198 5194 5190 5185 5179 5173 5168 5164 5163 5164 5165 5165 5166 5166 5168 5170 5171 5172 5173 5174 5175 5176 5179 5181 5182 5180 5178 5175 5171 5166 5162 5157 5154
5301 5297 5292 5274 5272 5282 5282 5282 5281 5280 5268 5264 5260 5258 5256 5238 5224 5217 5210 5200 5195 5190 5186 5178 5170 5164 5161 5156 5150 5144 5142 5143 5147 5151 5157 5165 5160 5154 5155 5157 5157 5157 5158 5158 5159 5161 5161 5160 5157 5155 5152 5148 5144 5139
5295 5290 5288 5282 5270 5278 5283 5274 5268 5255 5253 5250 5245 5243 5241 5234 5215 5205 5200 5194 5187 5179 5172 5165 5157 5148 5141 5137 5132 5127 5120 5119 5120 5125 5134 5136 5138 5138 5139 5142 5143 5143 5142 5141 5141 5140 5141 5141 5140 5137 5135 5132 5127 5122
5287 5286 5285 5286 5284 5281 5267 5258 5253 5247 5242 5241 5238 5228 5228 5219 5212 5200 5192 5183 5177 5172 5164 5156 5147 5133 5123 5115 5108 5105 5105 5099 5100 5104 5109 5114 5117 5119 5121 5124 5127 5129 5130 5130 5131 5131 5130 5130 5129 5126 5122 5116 5111 5106
5284 5283 5278 5273 5280 5266 5260 5258 5257 5251 5250 5242 5237 5227 5222 5216 5214 5197 5183 5177 5174 5168 5153 5145 5135 5124 5110 5102 5095 5089 5084 5085 5085 5087 5091 5098 5102 5104 5107 5109 5112 5115 5117 5118 5118 5119 5119 5118 5114 5110 5105 5100 5094 5088
5278 5273 5271 5269 5269 5267 5258 5248 5251 5250 5245 5241 5236 5224 5217 5209 5205 5189 5173 5166 5160 5154 5147 5138 5127 5117 5106 5098 5092 5088 5084 5079 5076 5077 5079 5083 5088 5093 5097 5099 5101 5103 5106 5107 5108 5108 5107 5105 5101 5096 5090 5085 5081 5077